When you browse on this site, cookies collect data to enhance your experience and personalize the content and advertising you see.
Visit our Privacy Policy to learn more. By continuing to use the site, you agree to this use of cookies and data.
  • In Slovakia
  • List of Countries
  • For 7 days
  • Water Temperature
  • Weather Map
  • Weather Widgets
  • user-avatar
    Login

    Hourly Weather Salta

    Today, 17 February, Monday

    Time Temperature Precipitation Wind Pressure Humidity
    00:00 +20°C° 0.1 mm 0 mps 647 mmHg 91%
    01:00 +20°C° 0.1 mm 0 mps 647 mmHg 91%
    02:00 +22°C° 0 mm 1 mps 646 mmHg 92%
    03:00 +20°C° 0.1 mm 0 mps 646 mmHg 92%
    04:00 +20°C° 0.1 mm 0 mps 646 mmHg 92%
    05:00 +20°C° 0.1 mm 0 mps 646 mmHg 92%
    06:00 +21°C° 0.2 mm 0 mps 647 mmHg 91%
    07:00 +21°C° 0.2 mm 0 mps 647 mmHg 90%
    08:00 +22°C° 0.2 mm 0 mps 647 mmHg 88%
    09:00 +24°C° 0.1 mm 0 mps 648 mmHg 80%
    10:00 +28°C° 0.1 mm 1 mps 648 mmHg 72%
    11:00 +30°C° 0.1 mm 1 mps 649 mmHg 64%
    12:00 +31°C° 0.2 mm 1 mps 648 mmHg 62%
    13:00 +32°C° 0.2 mm 2 mps 648 mmHg 60%
    14:00 +32°C° 0.2 mm 2 mps 647 mmHg 58%
    15:00 +32°C° 0.1 mm 2 mps 647 mmHg 59%
    16:00 +31°C° 0.1 mm 2 mps 646 mmHg 61%
    17:00 +31°C° 0.1 mm 1 mps 646 mmHg 63%
    18:00 +29°C° 0.1 mm 1 mps 646 mmHg 70%
    19:00 +27°C° 0.1 mm 1 mps 646 mmHg 76%
    20:00 +25°C° 0.1 mm 1 mps 647 mmHg 83%
    21:00 +25°C° 0.5 mm 1 mps 647 mmHg 84%
    22:00 +25°C° 0.5 mm 1 mps 648 mmHg 85%
    23:00 +24°C° 0.5 mm 1 mps 648 mmHg 86%

    Tomorrow, 18 February, Tuesday

    Time Temperature Precipitation Wind Pressure Humidity
    00:00 +24°C° 0.1 mm 1 mps 648 mmHg 85%
    01:00 +24°C° 0.1 mm 1 mps 648 mmHg 85%
    02:00 +24°C° 0.1 mm 1 mps 648 mmHg 84%
    03:00 +24°C° 0 mm 1 mps 648 mmHg 84%
    04:00 +23°C° 0 mm 1 mps 648 mmHg 83%
    05:00 +23°C° 0 mm 1 mps 648 mmHg 83%
    06:00 +24°C° 1.8 mm 2 mps 649 mmHg 84%
    07:00 +24°C° 1.8 mm 2 mps 651 mmHg 86%
    08:00 +24°C° 1.8 mm 3 mps 652 mmHg 88%
    09:00 +24°C° 2.3 mm 3 mps 652 mmHg 90%
    10:00 +22°C° 2.3 mm 3 mps 652 mmHg 92%
    11:00 +22°C° 2.3 mm 3 mps 653 mmHg 93%
    12:00 +23°C° 1.3 mm 2 mps 652 mmHg 93%
    13:00 +21°C° 1.3 mm 2 mps 652 mmHg 92%
    14:00 +22°C° 1.3 mm 1 mps 652 mmHg 91%
    15:00 +22°C° 0.2 mm 1 mps 651 mmHg 91%
    16:00 +22°C° 0.2 mm 1 mps 651 mmHg 91%
    17:00 +20°C° 0.2 mm 0 mps 650 mmHg 91%
    18:00 +20°C° 0 mm 0 mps 651 mmHg 90%
    19:00 +19°C° 0 mm 0 mps 651 mmHg 90%
    20:00 +19°C° 0 mm 0 mps 651 mmHg 89%
    21:00 +18°C° 0 mm 0 mps 652 mmHg 90%
    22:00 +18°C° 0 mm 0 mps 652 mmHg 90%
    23:00 +18°C° 0 mm 0 mps 653 mmHg 90%

    Day after tomorrow, 19 February, Wednesday

    Time Temperature Precipitation Wind Pressure Humidity
    00:00 +17°C° 0 mm 0 mps 652 mmHg 90%
    01:00 +17°C° 0 mm 0 mps 651 mmHg 89%
    02:00 +17°C° 0 mm 0 mps 651 mmHg 88%
    03:00 +17°C° 0 mm 0 mps 651 mmHg 88%
    04:00 +17°C° 0 mm 0 mps 650 mmHg 88%
    05:00 +16°C° 0 mm 0 mps 650 mmHg 87%
    06:00 +17°C° 0 mm 0 mps 650 mmHg 84%
    07:00 +18°C° 0 mm 0 mps 651 mmHg 82%
    08:00 +19°C° 0 mm 0 mps 651 mmHg 79%
    09:00 +23°C° 0 mm 1 mps 651 mmHg 73%
    10:00 +25°C° 0 mm 1 mps 651 mmHg 67%
    11:00 +27°C° 0 mm 1 mps 651 mmHg 61%
    12:00 +27°C° 0 mm 2 mps 651 mmHg 59%
    13:00 +28°C° 0 mm 2 mps 650 mmHg 58%
    14:00 +29°C° 0 mm 2 mps 650 mmHg 57%
    15:00 +28°C° 0 mm 2 mps 649 mmHg 58%
    16:00 +28°C° 0 mm 2 mps 649 mmHg 60%
    17:00 +28°C° 0 mm 1 mps 648 mmHg 62%
    18:00 +26°C° 0 mm 1 mps 648 mmHg 67%
    19:00 +25°C° 0 mm 1 mps 649 mmHg 73%
    20:00 +22°C° 0 mm 0 mps 649 mmHg 78%
    21:00 +21°C° 0 mm 0 mps 650 mmHg 80%
    22:00 +21°C° 0 mm 0 mps 650 mmHg 82%
    23:00 +20°C° 0 mm 0 mps 651 mmHg 84%

    20 February, Thursday

    Time Temperature Precipitation Wind Pressure Humidity
    00:00 +20°C° 0 mm 0 mps 651 mmHg 86%
    01:00 +20°C° 0 mm 0 mps 650 mmHg 87%
    02:00 +20°C° 0 mm 0 mps 650 mmHg 89%
    03:00 +20°C° 0 mm 0 mps 650 mmHg 89%
    04:00 +20°C° 0 mm 0 mps 651 mmHg 89%
    05:00 +20°C° 0 mm 0 mps 651 mmHg 89%
    06:00 +22°C° 0.2 mm 1 mps 651 mmHg 87%
    07:00 +23°C° 0.2 mm 1 mps 652 mmHg 85%
    08:00 +24°C° 0.2 mm 1 mps 653 mmHg 83%
    09:00 +25°C° 0.9 mm 1 mps 653 mmHg 78%
    10:00 +26°C° 0.9 mm 1 mps 653 mmHg 74%
    11:00 +28°C° 0.9 mm 2 mps 654 mmHg 70%
    12:00 +27°C° 1.7 mm 2 mps 653 mmHg 73%
    13:00 +27°C° 1.7 mm 2 mps 653 mmHg 76%
    14:00 +27°C° 1.7 mm 2 mps 652 mmHg 79%
    15:00 +26°C° 2.1 mm 2 mps 652 mmHg 82%
    16:00 +25°C° 2.1 mm 2 mps 651 mmHg 85%
    17:00 +25°C° 2.1 mm 2 mps 651 mmHg 88%
    18:00 +24°C° 1.4 mm 2 mps 651 mmHg 90%
    19:00 +23°C° 1.4 mm 2 mps 652 mmHg 93%
    20:00 +21°C° 1.4 mm 2 mps 653 mmHg 96%
    21:00 +20°C° 3.7 mm 2 mps 653 mmHg 96%
    22:00 +20°C° 3.7 mm 2 mps 654 mmHg 96%
    23:00 +19°C° 3.7 mm 3 mps 654 mmHg 95%

    21 February, Friday

    Time Temperature Precipitation Wind Pressure Humidity
    00:00 +18°C° 3.1 mm 3 mps 654 mmHg 95%
    01:00 +18°C° 3.1 mm 3 mps 654 mmHg 95%
    02:00 +17°C° 3.1 mm 2 mps 654 mmHg 94%
    09:00 +18°C° 0.1 mm 1 mps 655 mmHg 92%
    10:00 +18°C° 0.1 mm 1 mps 656 mmHg 93%
    11:00 +18°C° 0.1 mm 1 mps 656 mmHg 94%
    12:00 +19°C° 0.1 mm 1 mps 655 mmHg 92%
    13:00 +19°C° 0.1 mm 1 mps 655 mmHg 90%
    14:00 +19°C° 0.1 mm 1 mps 655 mmHg 88%
    15:00 +20°C° 0 mm 1 mps 654 mmHg 84%
    16:00 +21°C° 0 mm 1 mps 654 mmHg 80%
    17:00 +22°C° 0 mm 1 mps 653 mmHg 76%
    18:00 +21°C° 0 mm 1 mps 653 mmHg 81%
    19:00 +19°C° 0 mm 1 mps 653 mmHg 86%
    20:00 +18°C° 0 mm 1 mps 653 mmHg 92%
    21:00 +18°C° 0 mm 1 mps 654 mmHg 92%
    22:00 +18°C° 0 mm 1 mps 654 mmHg 92%
    23:00 +18°C° 0 mm 1 mps 655 mmHg 92%

    22 February, Saturday

    Time Temperature Precipitation Wind Pressure Humidity
    00:00 +18°C° 0 mm 1 mps 654 mmHg 91%
    01:00 +18°C° 0 mm 1 mps 654 mmHg 91%
    02:00 +16°C° 0 mm 0 mps 653 mmHg 90%
    03:00 +16°C° 0 mm 0 mps 653 mmHg 90%
    04:00 +15°C° 0 mm 0 mps 653 mmHg 90%
    05:00 +15°C° 0 mm 0 mps 653 mmHg 90%
    06:00 +15°C° 0 mm 0 mps 653 mmHg 89%
    07:00 +16°C° 0 mm 1 mps 653 mmHg 88%
    08:00 +16°C° 0 mm 1 mps 653 mmHg 87%
    09:00 +18°C° 0 mm 1 mps 653 mmHg 86%
    10:00 +18°C° 0 mm 1 mps 653 mmHg 84%
    11:00 +18°C° 0 mm 1 mps 652 mmHg 83%
    12:00 +18°C° 0 mm 1 mps 652 mmHg 81%
    13:00 +19°C° 0 mm 1 mps 651 mmHg 79%
    14:00 +20°C° 0 mm 1 mps 651 mmHg 77%
    15:00 +20°C° 0 mm 1 mps 650 mmHg 78%
    16:00 +20°C° 0 mm 1 mps 650 mmHg 79%
    17:00 +20°C° 0 mm 1 mps 649 mmHg 80%
    18:00 +19°C° 0 mm 1 mps 649 mmHg 81%
    19:00 +19°C° 0 mm 1 mps 649 mmHg 82%
    20:00 +18°C° 0 mm 1 mps 650 mmHg 83%
    21:00 +18°C° 0 mm 1 mps 650 mmHg 84%
    22:00 +16°C° 0 mm 1 mps 650 mmHg 84%
    23:00 +16°C° 0 mm 1 mps 651 mmHg 85%
    Show more